Simultaneous Nadir Overpasses (SNOs) Predictions

Prediction of SNOs between METOP-B and TERRA Satellite Orbit:

Table of predicted SNOs for the next 14.0 days since TLE Epoch: 4/20/2019
Index Date (METOP-B) Time (METOP-B) Lat,Lon (METOP-B) SZA (METOP-B ) Date (TERRA) Time (TERRA) Lat,Lon (TERRA) SZA (TERRA ) Distance(km) Time Diff (sec)
1 04/21/2019 10:11:07 -81.30,-105.37 107.63 04/21/2019 10:11:11 -81.31,-105.39 107.63 0.70 4
2 04/21/2019 11:01:48 81.30, 61.97 72.37 04/21/2019 11:00:38 81.30, 62.04 72.34 1.43 70
3 04/24/2019 04:54:51 81.30, 153.24 71.41 04/24/2019 04:56:01 81.30, 153.16 71.43 1.33 70
4 04/24/2019 05:45:30 -81.31, -38.76 108.53 04/24/2019 05:45:27 -81.31, -38.94 108.54 2.97 3
5 04/27/2019 00:29:14 81.30,-140.21 70.53 04/27/2019 00:30:17 81.30,-140.36 70.54 2.53 63
6 04/27/2019 01:19:54 -81.30, 27.44 109.45 04/27/2019 01:19:43 -81.31, 27.56 109.43 2.32 11
7 04/29/2019 20:03:36 81.30, -73.68 69.68 04/29/2019 20:04:32 81.30, -73.85 69.69 2.75 56
8 04/29/2019 20:54:17 -81.30, 93.62 110.34 04/29/2019 20:53:59 -81.30, 93.72 110.34 1.64 18
9 05/02/2019 15:38:00 81.30, -7.57 68.80 05/02/2019 15:38:49 81.29, -7.67 68.81 1.95 49




NCC Satellite Simultaneous Nadir Overpasses (SNOs) Prediction Service
